Location: Passau
(48.5830°N, 13.4830°E)
Time: 06:06:13
(UTC+02:00)

Vanguard 1 - Pass Details

Date: 03 August 2021
Orbit: 652 x 3831 km, 34.3° (Epoch: 16 September)

Event Time Altitude Azimuth Distance (km) Brightness Sun altitude
Rises 11:16:10 0° 218° (SW) 2,977 12.6 50.9°
Reaches altitude 10° 11:19:15 10° 192° (SSW) 2,191 12.3 51.3°
Maximum altitude 11:21:59 15° 158° (SSE) 2,063 12.6 51.6°
Drops below altitude 10° 11:25:13 10° 125° (SE) 2,677 13.1 52.0°
Sets 11:29:44 0° 103° (ESE) 4,140 13.7 52.5°
